Location: Moscow
(55.7500°N, 37.5830°E)
Time: 06:34:20
(UTC+03:00)

Transit 4A - Pass Details

Date: 30 November 2021
Orbit: 863 x 981 km, 66.8° (Epoch: 26 January)

Event Time Altitude Azimuth Distance (km) Brightness Sun altitude
Exits shadow 05:41:53 45° 257° (WSW) 1,281 8.2 -22.8°
Maximum altitude 05:42:30 47° 240° (WSW) 1,259 8.2 -22.7°
Drops below altitude 10° 05:48:30 10° 169° (S) 2,712 10.5 -21.9°
Sets 05:51:10 0° 164° (SSE) 3,664 11.3 -21.5°
